Lindcove
DateTemperatureDew Point
09/03 - 01:30 AM60.6°57.4°
09/03 - 01:15 AM61.5°57.7°
09/03 - 01:00 AM60.7°56.9°
09/03 - 12:45 AM61.0°57.5°
09/03 - 12:30 AM64.1°60.8°
09/03 - 12:15 AM63.0°59.3°
09/03 - 12:00 AM62.3°59.7°
09/02 - 11:45 PM63.3°60.3°
09/02 - 11:30 PM63.2°59.8°
09/02 - 11:15 PM63.1°58.1°
09/02 - 11:00 PM64.1°58.3°
09/02 - 10:45 PM64.1°58.2°
09/02 - 10:30 PM64.7°58.5°
09/02 - 10:15 PM64.9°59.3°
09/02 - 10:00 PM64.1°61.0°
09/02 - 09:45 PM65.8°62.1°
09/02 - 09:30 PM66.9°62.3°
09/02 - 09:15 PM70.2°65.7°
09/02 - 09:00 PM70.6°66.9°
09/02 - 08:45 PM69.6°65.8°
09/02 - 08:30 PM69.6°63.4°
09/02 - 08:15 PM73.0°65.9°
09/02 - 08:00 PM75.2°67.0°
09/02 - 07:45 PM76.1°66.2°
09/02 - 07:30 PM76.2°64.7°
09/02 - 07:15 PM77.5°62.3°
09/02 - 07:00 PM78.6°58.5°
09/02 - 06:45 PM79.6°56.4°
09/02 - 06:30 PM80.6°55.8°
09/02 - 06:15 PM81.0°54.8°
09/02 - 06:00 PM81.5°54.9°
09/02 - 05:45 PM81.6°55.3°
09/02 - 05:30 PM81.8°54.3°
09/02 - 05:15 PM82.1°54.6°
09/02 - 05:00 PM81.8°53.3°
09/02 - 04:45 PM82.3°54.7°
09/02 - 04:30 PM82.1°54.5°
09/02 - 04:15 PM81.7°53.4°
09/02 - 04:00 PM80.9°54.0°
09/02 - 03:45 PM81.2°54.4°
09/02 - 03:30 PM81.3°55.5°
09/02 - 03:15 PM80.7°54.7°
09/02 - 03:00 PM80.2°54.8°
09/02 - 02:45 PM80.2°55.4°
09/02 - 02:30 PM79.1°54.5°
09/02 - 02:15 PM78.6°54.4°
09/02 - 02:00 PM77.8°54.1°
09/02 - 01:45 PM77.8°54.0°
09/02 - 01:30 PM77.4°53.8°
09/02 - 01:15 PM76.5°53.2°
09/02 - 01:00 PM76.4°53.6°
09/02 - 12:45 PM75.3°52.8°
09/02 - 12:30 PM74.8°52.4°
09/02 - 12:15 PM74.1°52.8°
09/02 - 12:00 PM73.3°52.3°
09/02 - 11:45 AM73.0°52.3°
09/02 - 11:30 AM73.0°52.9°
09/02 - 11:15 AM71.6°52.3°
09/02 - 11:00 AM71.3°51.8°
09/02 - 10:45 AM70.4°52.3°
09/02 - 10:30 AM69.4°51.7°
09/02 - 10:15 AM68.7°51.2°
09/02 - 10:00 AM68.3°51.7°
09/02 - 09:45 AM67.4°51.5°
09/02 - 09:30 AM66.5°51.4°
09/02 - 09:15 AM65.0°51.8°
09/02 - 09:00 AM64.4°50.8°
09/02 - 08:45 AM63.6°51.2°
09/02 - 08:30 AM62.9°52.4°
09/02 - 08:15 AM62.0°52.7°
09/02 - 08:00 AM61.3°52.8°
09/02 - 07:45 AM60.8°53.4°
09/02 - 07:30 AM59.9°53.5°
09/02 - 07:15 AM59.1°53.7°
09/02 - 07:00 AM58.1°53.6°
09/02 - 06:45 AM57.3°54.6°
09/02 - 06:30 AM56.4°54.1°
09/02 - 06:15 AM56.3°53.5°
09/02 - 06:00 AM56.3°52.9°
09/02 - 05:45 AM56.6°52.9°
09/02 - 05:30 AM56.6°53.8°
09/02 - 05:15 AM56.4°53.5°
09/02 - 05:00 AM56.3°53.3°
09/02 - 04:45 AM55.6°53.3°
09/02 - 04:30 AM55.6°53.2°
09/02 - 04:15 AM56.1°53.9°
09/02 - 04:00 AM56.4°54.2°
09/02 - 03:45 AM56.5°54.0°
09/02 - 03:30 AM57.9°55.0°
09/02 - 03:15 AM58.7°55.3°
09/02 - 03:00 AM59.8°55.9°
09/02 - 02:45 AM60.1°55.1°
09/02 - 02:30 AM60.0°54.0°
09/02 - 02:15 AM60.8°54.3°
09/02 - 02:00 AM60.8°54.5°
09/02 - 01:45 AM61.3°54.0°
09/02 - 01:30 AM61.9°53.9°
09/02 - 01:15 AM61.7°54.3°
09/02 - 01:00 AM61.9°54.1°
09/02 - 12:45 AM62.6°53.4°
09/02 - 12:30 AM63.1°51.9°
09/02 - 12:15 AM64.4°51.7°
09/02 - 12:00 AM64.8°51.6°
09/01 - 11:45 PM65.8°51.5°
09/01 - 11:30 PM66.8°51.2°
09/01 - 11:15 PM67.6°51.1°
09/01 - 11:00 PM68.1°51.4°
09/01 - 10:45 PM66.4°54.5°
09/01 - 10:30 PM64.9°59.7°
09/01 - 10:15 PM64.6°58.7°
09/01 - 10:00 PM66.5°60.0°
09/01 - 09:45 PM67.7°60.0°
09/01 - 09:30 PM69.9°61.2°
09/01 - 09:15 PM67.3°58.0°
09/01 - 09:00 PM67.6°57.7°
09/01 - 08:45 PM68.8°57.5°
09/01 - 08:30 PM70.6°58.4°
09/01 - 08:15 PM69.6°58.2°
09/01 - 08:00 PM72.2°58.5°
09/01 - 07:45 PM73.6°56.4°
09/01 - 07:30 PM74.6°53.0°
09/01 - 07:15 PM76.1°52.4°
09/01 - 07:00 PM77.6°51.7°
09/01 - 06:45 PM79.2°50.9°
09/01 - 06:30 PM80.3°50.3°
09/01 - 06:15 PM81.1°49.8°
09/01 - 06:00 PM81.9°49.7°
09/01 - 05:45 PM82.4°49.7°
09/01 - 05:30 PM83.4°49.5°
09/01 - 05:15 PM83.7°49.2°
09/01 - 05:00 PM83.5°48.1°
09/01 - 04:45 PM82.8°47.2°
09/01 - 04:30 PM83.1°46.7°
09/01 - 04:15 PM83.4°47.5°
09/01 - 04:00 PM83.6°47.3°
09/01 - 03:45 PM82.7°47.4°
09/01 - 03:30 PM82.6°49.4°
09/01 - 03:15 PM82.1°47.9°
09/01 - 03:00 PM81.6°49.3°
09/01 - 02:45 PM81.6°50.1°
09/01 - 02:30 PM80.8°50.9°
09/01 - 02:15 PM80.4°51.0°
09/01 - 02:00 PM79.9°51.7°
09/01 - 01:45 PM78.9°51.7°
09/01 - 01:30 PM78.2°52.8°
09/01 - 01:15 PM77.0°51.7°
09/01 - 01:00 PM76.5°52.2°
09/01 - 12:45 PM76.3°53.2°
09/01 - 12:30 PM75.4°53.5°
09/01 - 12:15 PM74.8°53.4°
09/01 - 12:00 PM74.3°54.1°
09/01 - 11:45 AM73.3°54.1°
09/01 - 11:30 AM72.6°54.2°
09/01 - 11:15 AM71.4°53.6°
09/01 - 11:00 AM70.7°53.7°
09/01 - 10:45 AM70.3°53.9°
09/01 - 10:30 AM69.0°52.9°
09/01 - 10:15 AM68.8°53.6°
09/01 - 10:00 AM68.7°53.7°
09/01 - 09:45 AM67.3°53.6°
09/01 - 09:30 AM66.0°52.7°
09/01 - 09:15 AM65.1°52.6°
09/01 - 09:00 AM64.3°52.9°
09/01 - 08:45 AM63.2°53.0°
09/01 - 08:30 AM62.5°54.0°
09/01 - 08:15 AM61.7°54.4°
09/01 - 08:00 AM61.1°55.0°
09/01 - 07:45 AM60.7°56.1°
09/01 - 07:30 AM60.0°56.6°
09/01 - 07:15 AM59.3°57.3°
09/01 - 07:00 AM58.4°57.2°
09/01 - 06:45 AM57.7°56.4°
09/01 - 06:30 AM57.7°56.2°
09/01 - 06:15 AM57.8°56.1°
09/01 - 06:00 AM58.0°56.0°
09/01 - 05:45 AM58.1°55.8°
09/01 - 05:30 AM58.4°56.1°
09/01 - 05:15 AM59.1°56.4°
09/01 - 05:00 AM59.6°56.7°
09/01 - 04:45 AM59.6°56.8°
09/01 - 04:30 AM60.2°57.7°
09/01 - 04:15 AM60.6°57.7°
09/01 - 04:00 AM61.5°58.1°
09/01 - 03:45 AM62.0°57.3°
09/01 - 03:30 AM61.0°55.7°
09/01 - 03:15 AM61.9°55.6°
09/01 - 03:00 AM62.4°54.9°
09/01 - 02:45 AM62.9°53.9°
09/01 - 02:30 AM63.3°53.8°
09/01 - 02:15 AM63.5°54.3°
09/01 - 02:00 AM63.6°53.8°